Location: Wien
(48.2082°N, 16.3738°E)
Time: 02:12:22
(UTC+02:00)

MOZHAYETS 4 - Pass Details

Date: 25 April 2024
Orbit: 652 x 670 km, 98.3° (Epoch: 23 May)

Event Time Altitude Azimuth Distance (km) Brightness Sun altitude
Rises 02:58:23 0° 130° (SE) 3,010 11.0 -22.4°
Reaches altitude 10° 03:00:55 10° 117° (ESE) 2,102 10.3 -22.2°
Maximum altitude 03:04:37 25° 63° (ENE) 1,366 9.9 -21.9°
Drops below altitude 10° 03:08:20 10° 9° (N) 2,112 11.2 -21.5°
Sets 03:10:53 0° 356° (N) 3,030 11.9 -21.2°
